This is the latest recevied weather packets stored in our database for station/object KC4BAM. If no packets are shown the sender has not sent any weather packets the latest 10 day(s).
| Time | Temp. | Humidity | Pressure | Rain* | Wind** | Luminosity | Snow |
|---|---|---|---|---|---|---|---|
| 1778066734 | 10.56° C | 97% | 1001.5 hPa | 0 mm | - | 5 W/m² | - |
| 1778066431 | 10.56° C | 97% | 1001.4 hPa | 0 mm | - | 3 W/m² | - |
| 1778066130 | 10.56° C | 97% | 1001.7 hPa | 0 mm | - | 2 W/m² | - |
| 1778065826 | 10.56° C | 97% | 1002.1 hPa | 1.78 mm | - | 2 W/m² | - |
| 1778065524 | 10.56° C | 97% | 1001.7 hPa | 1.78 mm | - | 1 W/m² | - |
| 1778065221 | 10.56° C | 97% | 1001.7 hPa | 0 mm | - | 1 W/m² | - |
| 1778064917 | 10.56° C | 97% | 1001.4 hPa | 0 mm | - | 0 W/m² | - |
| 1778064614 | 10.56° C | 97% | 1001.5 hPa | 0 mm | - | 0 W/m² | - |
| 1778064313 | 10.56° C | 97% | 1001.5 hPa | 1.27 mm | - | 0 W/m² | - |
| 1778064010 | 10.56° C | 97% | 1001.4 hPa | 3.05 mm | - | 0 W/m² | - |
| 1778063707 | 10.56° C | 97% | 1001.5 hPa | 3.05 mm | - | 0 W/m² | - |
| 1778063403 | 10.56° C | 97% | 1001.7 hPa | 1.27 mm | - | 0 W/m² | - |
| 1778063102 | 10.56° C | 97% | 1001.7 hPa | 0 mm | - | 0 W/m² | - |
| 1778062799 | 10.56° C | 97% | 1001.2 hPa | 0 mm | - | 0 W/m² | - |
| 1778062495 | 10.56° C | 97% | 1001 hPa | 0 mm | - | 0 W/m² | - |
| 1778062193 | 10.56° C | 97% | 1000.6 hPa | 0 mm | - | 0 W/m² | - |
| 1778061891 | 10.56° C | 97% | 1000.6 hPa | 0 mm | - | 0 W/m² | - |
| 1778061589 | 10.56° C | 97% | 1000.5 hPa | 0 mm | - | 0 W/m² | - |
| 1778061287 | 10.56° C | 97% | 1000.5 hPa | 0 mm | - | 0 W/m² | - |
| 1778060983 | 10.56° C | 97% | 1000.4 hPa | 0 mm | - | 0 W/m² | - |
| 1778060682 | 10.56° C | 97% | 1000.1 hPa | 0 mm | - | 0 W/m² | - |
| 1778060379 | 10.56° C | 97% | 1000.2 hPa | 0 mm | - | 0 W/m² | - |
| 1778060077 | 10.56° C | 97% | 1000.1 hPa | 0 mm | - | 0 W/m² | - |
| 1778059774 | 10.56° C | 97% | 1000 hPa | 0 mm | - | 0 W/m² | - |
| 1778059472 | 10.56° C | 97% | 1000.2 hPa | 0 mm | - | 0 W/m² | - |
* Rain latest hour (hover to see other rain measurements)
** Current wind speed in m/s (hover to see current wind gust speed)